Orbital Elements at Epoch 2459000.5 (2020-May-31.0) TDB
Reference: JPL 14 (heliocentric ecliptic J2000)
Element | Value | Uncertainty (1-sigma) | Units |
e | .1725607044175077 | 5.3529e-08 | |
a | 2.725906366291432 | 1.5246e-08 | au |
q | 2.255522043548014 | 1.5246e-07 | au |
i | 2.728807687894505 | 5.1496e-06 | deg |
node | 5.943101821160547 | 9.4154e-05 | deg |
peri | 10.67705088889597 | 9.5221e-05 | deg |
M | 296.5173980057186 | 1.4842e-05 | deg |
tp | 2459290.379194658964 (2021-Mar-16.87919466) | 6.8973e-05 | TDB |
period | 1643.85999941571 4.50 | 1.3791e-05 3.776e-08 | d yr |
n | .2189967516260252 | 1.8372e-09 | deg/d |
Q | 3.19629068903485 | 1.7877e-08 | au |
|
| | Orbit Determination Parameters
Additional Information
|